EZY34UJ EGGD-LDSP

Flight info

Callsign EZY34UJ
Flight time N/A
Altitude 37000
Route YORQI DCT NUCHU L607 KONAN DCT KOK DCT SISGA DCT KOMOB M150 PITES DCT EDISA DCT PICWI DCT UTABA DCT BEMKI DCT ELMEM DCT DIRAB DCT VESAL DCT PEVAL DCT SAL
Aircraft A20N/M-SDE2E3FGHIRWXY/LB1

Departure

Time N/A
Airport Bristol Airport (EGGD)

Arrival

Time 2026-05-04 14:59
Airport Split Saint Jerome Airport (LDSP)
Time Latitude Longitude Altitude Speed Heading
2026-05-04 14:28 44.19350 14.82052 35666 ft 448 kts 136°
2026-05-04 14:28 44.17111 14.85114 35028 ft 450 kts 136°
2026-05-04 14:28 44.14882 14.88157 34370 ft 451 kts 136°
2026-05-04 14:29 44.10420 14.94238 32969 ft 454 kts 136°
2026-05-04 14:29 44.05911 15.00371 31595 ft 455 kts 136°
2026-05-04 14:30 44.03637 15.03458 30901 ft 455 kts 136°
2026-05-04 14:30 44.01393 15.06504 30191 ft 457 kts 136°
2026-05-04 14:30 43.96836 15.12676 28678 ft 461 kts 136°
2026-05-04 14:31 43.94570 15.15734 28146 ft 456 kts 136°
2026-05-04 14:31 43.89986 15.21455 27245 ft 446 kts 139°
2026-05-04 14:32 43.85325 15.27144 26296 ft 436 kts 139°
2026-05-04 14:32 43.83063 15.29902 25838 ft 432 kts 139°
2026-05-04 14:32 43.80814 15.32644 25366 ft 428 kts 139°
2026-05-04 14:32 43.78615 15.35323 24918 ft 425 kts 139°
2026-05-04 14:33 43.76406 15.38008 24461 ft 421 kts 138°
2026-05-04 14:33 43.74206 15.40681 23738 ft 423 kts 138°
2026-05-04 14:33 43.71989 15.43369 22867 ft 428 kts 139°
2026-05-04 14:33 43.69786 15.46039 22303 ft 425 kts 139°
2026-05-04 14:34 43.67582 15.48707 21809 ft 419 kts 138°
2026-05-04 14:34 43.65398 15.51350 21317 ft 414 kts 139°
2026-05-04 14:34 43.63234 15.53970 20801 ft 410 kts 139°
2026-05-04 14:34 43.61126 15.56513 20240 ft 407 kts 138°
2026-05-04 14:35 43.58995 15.59082 19748 ft 402 kts 138°
2026-05-04 14:35 43.56929 15.61573 19256 ft 397 kts 138°
2026-05-04 14:35 43.54849 15.64073 18657 ft 395 kts 138°
2026-05-04 14:35 43.52851 15.66474 18135 ft 392 kts 139°
2026-05-04 14:36 43.50813 15.68922 17620 ft 388 kts 139°
2026-05-04 14:36 43.48793 15.71347 17075 ft 385 kts 139°
2026-05-04 14:36 43.47104 15.73374 16620 ft 382 kts 139°
2026-05-04 14:36 43.45177 15.75685 16063 ft 374 kts 139°
2026-05-04 14:37 43.43240 15.78004 15140 ft 371 kts 139°
2026-05-04 14:37 43.41320 15.80301 14164 ft 366 kts 139°
2026-05-04 14:37 43.39435 15.82554 13552 ft 352 kts 139°
2026-05-04 14:37 43.37645 15.84693 12985 ft 338 kts 139°
2026-05-04 14:38 43.35916 15.86756 12450 ft 326 kts 138°
2026-05-04 14:38 43.34224 15.88773 11924 ft 315 kts 138°
2026-05-04 14:38 43.32598 15.90712 11295 ft 308 kts 137°
2026-05-04 14:38 43.31175 15.92850 10706 ft 300 kts 123°
2026-05-04 14:39 43.30193 15.95261 10264 ft 290 kts 114°
2026-05-04 14:39 43.29387 15.97764 9706 ft 285 kts 112°
2026-05-04 14:39 43.28615 16.00240 9061 ft 282 kts 112°
2026-05-04 14:40 43.27060 16.05147 7790 ft 279 kts 112°
2026-05-04 14:40 43.26293 16.07532 7177 ft 276 kts 112°
2026-05-04 14:40 43.25522 16.09919 6771 ft 267 kts 112°
2026-05-04 14:40 43.24982 16.12267 6385 ft 257 kts 91°
2026-05-04 14:41 43.25241 16.14653 6066 ft 251 kts 65°
2026-05-04 14:41 43.26204 16.16596 5715 ft 248 kts 41°
2026-05-04 14:41 43.29228 16.18712 5156 ft 244 kts 21°
2026-05-04 14:42 43.32236 16.20391 5086 ft 226 kts 22°
2026-05-04 14:42 43.33677 16.21228 5053 ft 227 kts 26°
2026-05-04 14:42 43.35016 16.22402 5003 ft 228 kts 38°
2026-05-04 14:43 43.36215 16.23814 4905 ft 227 kts 41°
2026-05-04 14:43 43.37394 16.25266 4784 ft 226 kts 41°
2026-05-04 14:43 43.38544 16.26683 4630 ft 219 kts 41°
2026-05-04 14:43 43.39672 16.28063 4329 ft 219 kts 41°
2026-05-04 14:44 43.40804 16.29444 4023 ft 219 kts 40°
2026-05-04 14:44 43.41938 16.30824 3710 ft 215 kts 40°
2026-05-04 14:44 43.43033 16.32157 3421 ft 206 kts 40°
2026-05-04 14:44 43.44092 16.33445 3227 ft 196 kts 40°
2026-05-04 14:45 43.45097 16.34668 2944 ft 192 kts 40°
2026-05-04 14:45 43.46089 16.35876 2666 ft 188 kts 40°
2026-05-04 14:45 43.47061 16.37056 2408 ft 184 kts 41°
2026-05-04 14:45 43.47993 16.38194 2163 ft 179 kts 40°
2026-05-04 14:46 43.48946 16.39256 1968 ft 170 kts 26°
2026-05-04 14:46 43.50045 16.39525 1786 ft 159 kts 351°
2026-05-04 14:46 43.51099 16.39192 1603 ft 149 kts 346°
2026-05-04 14:46 43.52085 16.38862 1416 ft 145 kts 345°
2026-05-04 14:47 43.53056 16.38516 1280 ft 145 kts 346°
2026-05-04 14:47 43.54026 16.38131 1229 ft 146 kts 343°
2026-05-04 14:47 43.54988 16.37650 1199 ft 146 kts 332°
2026-05-04 14:47 43.55724 16.36703 1129 ft 148 kts 302°
2026-05-04 14:48 43.56073 16.35373 1039 ft 149 kts 277°
2026-05-04 14:48 43.55995 16.33956 831 ft 150 kts 253°
2026-05-04 14:48 43.55509 16.32696 558 ft 149 kts 233°
2026-05-04 14:48 43.54841 16.31500 837 ft 163 kts 230°
2026-05-04 14:49 43.54145 16.30336 1654 ft 159 kts 231°
2026-05-04 14:49 43.53444 16.29175 2249 ft 166 kts 232°
2026-05-04 14:49 43.52710 16.27854 2694 ft 183 kts 234°
2026-05-04 14:49 43.51915 16.26358 2965 ft 204 kts 235°
2026-05-04 14:50 43.51065 16.24752 2970 ft 209 kts 234°
2026-05-04 14:50 43.50174 16.23063 2922 ft 225 kts 234°
2026-05-04 14:50 43.49245 16.21304 2951 ft 228 kts 235°
2026-05-04 14:50 43.48305 16.19528 2963 ft 228 kts 235°
2026-05-04 14:51 43.47305 16.17843 2969 ft 228 kts 229°
2026-05-04 14:51 43.46170 16.16341 2961 ft 228 kts 212°
2026-05-04 14:51 43.44668 16.15724 2967 ft 230 kts 177°
2026-05-04 14:51 43.43135 16.16310 2976 ft 230 kts 149°
2026-05-04 14:52 43.42060 16.17879 2967 ft 228 kts 114°
2026-05-04 14:52 43.41466 16.19875 2970 ft 227 kts 110°
2026-05-04 14:52 43.40870 16.21891 2973 ft 228 kts 111°
2026-05-04 14:52 43.40254 16.23899 2975 ft 227 kts 112°
2026-05-04 14:53 43.39630 16.25894 2975 ft 227 kts 112°
2026-05-04 14:53 43.39234 16.27975 2949 ft 224 kts 83°
2026-05-04 14:53 43.39812 16.29879 2961 ft 218 kts 43°
2026-05-04 14:53 43.41044 16.30956 2980 ft 202 kts 26°
2026-05-04 14:54 43.42220 16.31838 3044 ft 188 kts 30°
2026-05-04 14:54 43.43301 16.32816 2996 ft 185 kts 35°
2026-05-04 14:54 43.44322 16.33881 2966 ft 186 kts 37°
2026-05-04 14:54 43.45329 16.35018 2794 ft 185 kts 39°
2026-05-04 14:55 43.46296 16.36155 2576 ft 179 kts 40°
2026-05-04 14:55 43.47219 16.37260 2364 ft 173 kts 40°
2026-05-04 14:55 43.48111 16.38317 2137 ft 168 kts 39°
2026-05-04 14:55 43.49031 16.39215 1907 ft 161 kts 18°
2026-05-04 14:56 43.50130 16.39289 1728 ft 159 kts 353°
2026-05-04 14:56 43.51207 16.39104 1585 ft 148 kts 351°
2026-05-04 14:56 43.52196 16.38832 1418 ft 145 kts 348°
2026-05-04 14:56 43.53189 16.38606 1284 ft 145 kts 351°
2026-05-04 14:57 43.54183 16.38371 1223 ft 145 kts 349°
2026-05-04 14:57 43.55151 16.37993 1148 ft 146 kts 329°
2026-05-04 14:57 43.55830 16.36978 1025 ft 148 kts 295°
2026-05-04 14:57 43.56014 16.35586 903 ft 149 kts 269°
2026-05-04 14:58 43.55954 16.34162 699 ft 150 kts 263°
2026-05-04 14:58 43.55595 16.32839 452 ft 149 kts 232°
2026-05-04 14:58 43.54961 16.31706 225 ft 148 kts 230°
2026-05-04 14:58 43.54340 16.30594 64 ft 144 kts 230°
2026-05-04 14:59 43.53876 16.29763 68 ft 67 kts 232°
2026-05-04 14:59 43.53736 16.29513 70 ft 7 kts 231°
2026-05-04 14:59 43.53695 16.29547 69 ft 6 kts 94°
2026-05-04 15:00 43.53693 16.29634 67 ft 10 kts 90°
2026-05-04 15:00 43.53722 16.29725 68 ft 11 kts 51°
2026-05-04 15:00 43.53770 16.29812 68 ft 10 kts 53°
2026-05-04 15:01 43.53764 16.29900 68 ft 2 kts 113°
2026-05-04 15:01 43.53758 16.29920 68 ft 1 kts 112°